Temperature
24 22 22 21 21 21 21 21 20 20 20 19 19 19 19 18 18 18 18 18 18 18 18 18 18 18 17 17 17 17 17 17 17 18 18 18 18 18 18 18 18 18 17
24 23 22 21 21 21 21 21 21 20 20 20 20 19 19 18 18 18 18 18 18 18 18 18 18 18 17 17 17 17 17 18 17 18 18 19 19 18 18 18 18 18 18
25 23 22 22 21 21 21 21 21 21 20 20 19 19 19 19 18 18 18 18 18 18 18 18 18 17 17 17 17 17 17 17 18 18 18 19 20 20 19 18 18 18 18
25 24 23 22 22 22 21 21 21 20 20 20 19 19 18 18 19 19 18 18 18 18 18 18 18 18 17 17 17 17 17 17 18 18 17 18 18 19 19 19 19 18 18
25 24 23 22 22 22 21 21 21 20 20 20 19 19 19 18 18 18 18 18 18 18 18 18 18 18 18 17 17 17 17 17 17 18 18 17 17 18 18 19 19 18 18
25 24 23 22 22 21 21 21 20 20 20 20 19 19 19 19 18 18 18 18 18 18 18 18 18 18 18 17 17 17 17 17 17 17 17 17 18 18 18 18 18 18 18
25 24 23 22 21 21 21 20 20 20 20 20 19 19 19 19 18 18 18 18 18 18 18 18 18 18 18 18 18 17 17 17 17 17 17 17 17 18 18 18 18 18 18
25 24 23 22 21 21 21 20 20 20 20 19 19 19 19 18 18 18 18 18 17 18 18 18 18 18 17 17 17 17 17 17 17 17 17 17 17 17 17 17 17 17 18
25 24 23 22 21 21 21 20 20 20 19 19 19 19 19 19 18 18 18 18 18 17 17 17 17 17 17 17 17 17 17 17 17 17 17 17 17 17 17 17 17 17 17
25 24 23 22 21 21 20 20 20 19 19 19 19 19 19 18 18 18 18 18 18 18 17 17 17 17 17 17 17 17 17 17 17 17 17 17 17 17 17 17 17 17 16
24 23 22 21 21 20 20 20 19 19 19 19 19 18 18 18 18 18 18 18 17 17 17 17 17 17 17 17 17 17 16 16 16 16 16 16 16 16 16 16 16 16 16
23 23 22 21 20 20 20 19 19 19 19 18 18 18 18 18 17 17 17 17 17 17 17 17 17 17 16 17 16 16 16 16 16 16 16 16 16 16 16 16 16 16 16
22 22 21 20 20 19 19 19 19 18 18 18 18 18 17 17 17 17 17 17 17 17 17 17 16 16 16 16 16 16 16 16 16 16 16 16 15 15 15 15 15 15 15
22 21 21 20 19 19 19 18 18 18 18 18 18 17 17 17 17 17 17 17 17 17 16 16 16 16 16 16 16 16 16 16 16 15 15 15 15 15 15 15 15 15 15
22 21 20 19 19 18 18 18 18 18 18 18 17 17 17 17 17 17 17 16 16 16 16 16 16 16 16 16 16 15 15 15 15 15 15 15 15 15 14 14 14 14 14
21 20 19 19 19 18 18 18 18 17 17 17 17 17 17 16 16 16 16 16 16 16 16 16 16 15 15 15 15 15 15 15 15 14 14 14 14 14 14 14 14 14 14
21 20 19 19 18 18 18 18 17 17 17 17 16 16 16 16 16 16 16 16 16 16 15 15 15 15 15 15 15 15 14 14 14 14 14 13 13 13 13 13 13 13 13
20 19 19 18 18 18 18 17 17 17 16 16 16 16 16 16 16 15 16 15 15 15 15 15 15 14 14 14 14 14 14 14 13 13 13 13 13 13 13 12 12 12 12
19 18 18 18 18 17 17 17 17 16 16 16 16 16 16 15 15 15 15 15 15 15 14 14 14 14 14 14 14 14 13 13 13 12 12 12 12 12 12 12 12 11 11
18 18 18 18 17 17 17 17 16 16 16 16 16 16 15 15 15 15 15 15 14 14 14 14 14 14 13 13 13 13 13 12 12 12 12 12 12 11 11 11 11 11 11
17 17 17 17 17 17 17 17 16 16 16 16 15 15 15 15 15 15 14 14 14 14 13 13 13 13 13 12 13 12 12 12 11 11 11 11 11 11 11 11 10 10 10
16 16 16 16 16 16 16 16 16 16 15 15 15 15 15 14 14 14 14 14 13 13 13 12 12 12 12 12 12 12 12 11 11 10 10 10 10 10 10 10 10 10 10
16 16 16 16 16 16 16 16 15 15 15 15 14 14 14 14 14 13 13 13 13 12 12 12 11 11 11 11 11 11 11 11 10 10 10 10 10 9 9 9 9 9 9
15 15 15 15 15 15 15 15 15 15 15 14 14 13 13 13 13 13 12 12 12 12 12 12 11 11 11 10 10 10 10 10 10 9 9 9 9 9 9 9 9 8 8
15 15 15 15 14 14 15 14 14 14 14 13 13 13 13 12 12 12 12 12 12 12 11 11 11 11 10 10 10 10 10 9 9 9 9 9 9 9 8 8 8 8 8
14 14 14 14 14 14 14 14 14 14 13 13 13 12 12 12 12 12 12 11 11 11 11 11 10 10 10 10 10 9 9 9 9 9 9 9 9 8 8 8 8 7 7
Wind_Speed
13 13 13 13 12 11 11 11 11 11 10 8 9 8 9 8 8 9 10 11 11 10 9 8 7 7 7 7 7 6 7 7 6 6 6 6 8 8 7 7 7 8 9
13 13 13 13 13 13 12 12 12 12 11 9 8 7 7 8 8 8 9 12 12 11 10 9 8 8 7 8 8 8 7 6 6 6 5 5 6 7 8 7 8 7 7
14 14 14 14 13 13 14 12 13 12 12 10 8 6 6 6 7 8 9 11 13 13 11 10 10 8 9 8 9 9 9 7 7 7 6 5 4 3 5 6 6 6 6
13 13 13 14 14 13 12 12 12 11 11 11 10 10 9 9 9 8 8 9 11 12 12 12 11 10 9 9 10 10 9 9 8 6 7 8 6 5 3 5 6 6 6
12 12 12 12 12 11 11 11 11 11 11 11 11 11 11 9 8 7 8 8 9 11 12 11 11 10 9 10 10 9 10 9 9 8 6 8 7 9 7 6 4 4 5
9 10 10 10 10 10 10 9 10 10 11 11 11 11 11 10 9 8 7 7 7 8 10 10 9 10 9 10 10 10 11 10 10 8 7 7 6 7 8 8 7 6 5
9 10 10 11 10 10 10 9 10 10 10 11 10 10 11 10 10 8 7 7 6 7 8 9 8 9 9 10 10 9 10 10 10 9 8 8 9 8 8 8 7 7 6
8 9 10 10 10 10 10 9 10 9 9 9 9 9 9 8 7 7 6 6 6 7 7 8 8 9 10 10 9 9 10 9 10 10 10 8 8 8 8 8 7 7 7
8 8 9 9 9 9 9 9 8 8 8 8 8 7 7 6 6 5 6 5 5 5 6 7 8 8 9 9 9 8 9 8 9 9 9 8 7 7 7 7 7 7 8
8 8 8 8 8 8 8 7 7 7 6 6 6 5 5 5 4 4 4 4 4 4 5 6 7 7 7 7 7 8 7 7 8 7 8 8 7 6 6 6 6 6 7
7 8 8 8 8 8 7 7 6 6 5 5 5 4 4 4 3 3 3 3 3 3 4 5 5 5 6 6 6 7 7 7 8 8 8 8 7 6 5 5 5 6 6
7 8 9 9 8 8 7 7 6 5 5 5 4 4 3 3 2 2 2 1 1 2 2 2 3 4 4 4 5 6 5 6 6 6 6 6 5 6 5 5 5 5 5
8 9 9 8 8 7 7 6 6 5 4 4 4 4 3 3 2 1 1 1 0 0 0 0 1 2 2 2 2 2 3 3 3 4 4 4 4 4 4 4 4 4 4
9 9 9 8 8 7 7 6 5 5 4 4 4 4 3 3 2 2 2 1 1 2 2 2 2 2 2 1 0 0 1 1 1 1 1 1 2 3 3 3 3 3 3
9 9 9 8 8 7 7 6 5 5 4 4 4 4 4 3 3 3 3 3 3 4 4 4 4 3 3 2 2 1 1 2 2 2 2 2 3 4 3 1 1 1 2
10 10 9 9 8 7 7 6 5 5 5 5 5 4 4 4 4 4 4 5 5 5 5 5 5 5 5 8 7 4 4 4 4 4 4 4 5 6 6 7 7 5 2
10 10 10 9 8 7 7 7 6 6 6 6 5 5 5 5 5 5 5 6 6 6 6 6 6 7 8 9 8 7 6 6 6 6 5 4 5 5 5 6 7 7 7
10 10 9 9 8 8 8 8 7 7 7 6 5 5 6 6 6 6 6 6 6 6 7 7 7 7 9 10 9 8 8 9 9 8 7 6 5 5 4 5 6 7 7
9 9 9 9 9 8 8 8 8 8 7 7 6 5 6 7 7 7 7 6 7 7 7 7 8 8 8 10 8 6 8 9 10 10 10 8 8 9 6 6 7 7 7
9 9 9 9 9 8 9 9 8 8 7 7 6 6 7 7 8 7 7 7 7 8 8 8 9 9 9 10 9 6 7 8 8 9 10 13 11 12 10 7 7 7 6
10 10 10 9 8 8 9 9 8 7 7 7 7 7 7 8 8 8 7 7 8 9 9 10 10 10 9 10 11 9 6 7 8 8 8 9 12 12 11 9 8 6 4
11 11 10 9 8 8 9 9 8 7 8 8 8 8 8 7 7 8 8 8 9 9 9 9 9 8 8 9 11 12 11 8 9 8 8 8 10 12 11 9 7 4 2
10 10 10 10 8 7 8 9 8 8 9 9 9 9 9 8 8 8 8 8 7 7 7 7 7 7 7 9 12 13 12 11 9 9 10 7 5 7 9 9 6 4 5
10 10 10 10 9 8 8 9 9 9 10 10 9 9 9 9 8 6 6 6 6 6 6 6 7 7 7 6 6 7 9 10 9 8 8 7 6 6 6 5 6 7 7
9 9 9 9 9 8 8 8 9 10 10 10 9 9 9 10 9 10 9 8 8 6 5 6 6 6 7 7 8 5 6 5 5 4 4 5 6 7 7 7 7 7 6
9 9 10 10 9 9 9 8 8 10 10 9 9 8 8 8 9 10 11 18 14 16 16 14 11 10 11 10 11 12 10 7 4 3 6 6 6 6 7 6 6 6 6
Wind_Direction
194 194 194 196 194 194 196 199 203 199 200 203 206 208 214 218 219 220 220 223 228 224 228 243 226 231 232 233 231 234 232 238 242 249 249 239 237 240 239 236 240 232 230
192 192 192 193 196 197 199 200 203 202 203 207 212 217 222 221 224 228 223 225 227 227 226 230 233 230 232 232 233 232 241 239 228 243 253 251 232 222 230 226 228 235 231
199 193 194 196 198 201 203 203 202 203 207 208 212 217 221 227 225 224 224 224 224 224 230 228 231 231 233 232 231 230 235 241 236 236 248 261 259 248 210 218 229 231 235
202 197 197 199 202 203 203 205 202 203 206 208 215 216 225 231 232 229 229 228 227 227 226 230 229 230 234 233 233 230 234 237 242 232 235 252 279 274 255 221 214 219 230
200 197 197 198 202 202 200 200 202 203 206 211 216 220 230 236 241 239 236 234 232 230 228 226 227 227 235 236 239 238 236 234 241 243 237 239 244 248 260 262 252 231 228
191 190 188 185 189 194 194 193 198 201 205 210 216 223 232 238 243 241 239 235 233 230 226 226 228 230 233 234 236 239 235 238 244 246 244 242 244 243 246 254 258 260 253
181 180 178 176 179 184 185 187 192 197 202 208 215 224 233 239 242 244 243 243 238 230 227 229 230 235 235 235 234 234 238 237 240 241 244 247 249 255 255 258 262 266 266
171 172 173 171 173 178 179 181 186 193 198 206 214 223 231 238 243 244 248 243 243 241 234 230 231 234 235 234 230 233 234 236 240 242 245 251 252 251 251 255 260 264 263
162 163 163 166 168 172 170 175 180 185 191 200 206 214 224 236 251 254 251 253 248 242 232 230 236 238 236 235 234 235 236 236 239 242 241 243 251 253 253 251 253 257 265
154 152 153 157 158 161 161 167 172 175 182 193 200 199 211 221 233 249 257 259 253 245 234 230 236 240 238 232 232 240 237 236 241 245 248 244 246 243 246 246 246 247 253
148 146 147 145 147 153 157 161 163 166 176 184 187 191 198 202 209 231 245 253 255 247 241 232 235 236 236 234 233 238 237 237 241 241 239 238 245 245 243 241 240 242 240
142 141 141 139 143 147 148 148 149 159 166 169 169 170 176 186 191 209 229 235 249 266 253 236 229 233 239 240 239 237 236 239 245 245 244 247 243 239 243 239 239 243 247
142 140 139 139 140 140 139 138 141 146 152 152 154 153 159 162 165 165 165 197 167 25 340 344 270 268 258 243 240 232 231 235 245 248 246 251 253 247 239 238 242 247 248
147 143 140 137 134 134 133 132 130 132 138 140 146 146 144 143 137 127 117 104 93 82 66 65 42 33 40 62 90 156 206 217 224 235 245 283 269 259 246 237 242 246 253
153 148 145 138 137 134 132 128 126 125 129 136 137 133 134 129 117 112 106 97 88 83 73 70 64 63 65 56 54 78 97 94 89 76 65 51 49 38 17 343 330 291 272
158 152 147 143 140 138 136 132 130 129 129 128 126 124 125 121 114 110 110 105 96 84 76 73 69 59 53 46 40 44 71 73 74 68 68 71 66 72 72 59 52 35 6
158 154 149 145 142 139 138 136 129 129 125 119 118 123 124 115 109 110 111 105 98 91 82 75 72 66 54 48 48 51 69 68 63 60 59 59 58 62 82 86 84 63 47
155 153 148 143 140 137 136 132 129 127 121 116 113 116 118 113 111 107 102 100 98 91 86 79 75 74 59 50 55 64 75 72 66 61 58 60 58 52 61 77 73 64 50
149 146 143 139 135 135 134 132 128 126 120 113 112 112 116 117 116 112 105 98 94 89 86 82 78 76 63 43 42 58 85 79 70 61 52 53 62 38 40 79 78 74 72
137 136 135 132 130 130 133 132 129 125 118 114 112 112 116 117 116 112 106 99 96 93 90 81 74 73 67 47 41 46 89 87 82 73 63 54 53 42 38 69 75 75 67
132 132 130 127 125 127 129 126 122 118 115 114 113 110 108 110 111 109 107 107 104 97 91 86 79 72 67 61 46 40 78 87 86 79 70 58 51 52 46 53 65 60 53
131 131 127 120 120 125 127 122 118 116 114 114 111 108 107 108 111 111 109 109 111 106 100 94 88 81 72 64 59 54 55 63 85 80 78 73 65 65 58 59 50 19 359
131 129 126 120 116 117 121 121 119 118 116 113 109 105 100 96 104 111 114 115 115 111 108 104 98 91 88 85 80 73 67 62 81 84 81 81 88 97 79 65 34 25 49
131 131 126 121 117 116 115 119 122 120 118 115 112 108 104 99 92 93 96 101 103 107 109 106 104 102 95 87 91 98 99 107 101 100 111 115 83 82 85 80 57 50 44
126 127 126 124 121 117 116 122 127 126 121 119 116 113 107 101 88 74 55 65 60 56 80 97 101 100 95 65 43 62 78 76 77 90 92 74 67 61 59 58 53 47 46
128 126 125 123 123 122 119 123 130 131 129 127 125 120 117 114 111 104 85 56 60 58 56 54 73 78 81 84 73 68 63 52 4 48 78 68 60 53 51 51 53 51 45
Height
1533 1535 1538 1540 1542 1544 1546 1548 1550 1552 1554 1556 1557 1559 1560 1561 1562 1564 1564 1565 1567 1568 1569 1571 1572 1573 1574 1575 1576 1577 1578 1579 1579 1580 1580 1580 1579 1579 1579 1579 1580 1580 1581
1530 1532 1534 1537 1539 1541 1543 1545 1547 1550 1551 1553 1555 1556 1558 1559 1560 1561 1561 1562 1563 1565 1566 1567 1568 1570 1571 1571 1573 1574 1576 1576 1577 1578 1578 1578 1578 1576 1576 1576 1576 1577 1578
1525 1528 1531 1533 1535 1537 1539 1542 1544 1546 1548 1550 1552 1553 1554 1555 1556 1557 1557 1559 1560 1561 1562 1564 1565 1566 1567 1568 1569 1571 1572 1574 1574 1575 1576 1575 1574 1574 1574 1574 1574 1574 1574
1521 1525 1527 1530 1532 1534 1537 1539 1541 1543 1545 1547 1549 1550 1550 1551 1552 1553 1554 1555 1555 1557 1558 1560 1561 1562 1564 1565 1566 1568 1569 1570 1571 1571 1572 1573 1573 1573 1572 1572 1571 1571 1571
1517 1521 1523 1526 1529 1532 1534 1536 1538 1540 1541 1543 1545 1546 1547 1548 1549 1549 1550 1550 1551 1553 1554 1555 1557 1558 1559 1561 1563 1564 1565 1566 1567 1568 1569 1569 1569 1570 1570 1569 1569 1569 1569
1515 1518 1521 1524 1526 1529 1531 1533 1534 1536 1538 1539 1541 1542 1543 1544 1545 1545 1546 1546 1547 1548 1549 1550 1552 1553 1555 1556 1558 1560 1561 1562 1563 1564 1564 1565 1566 1566 1566 1565 1565 1566 1566
1512 1515 1518 1521 1523 1525 1527 1529 1531 1533 1534 1536 1538 1539 1539 1540 1541 1541 1542 1542 1543 1544 1544 1546 1547 1548 1550 1552 1553 1555 1556 1557 1558 1559 1560 1560 1561 1562 1562 1562 1562 1562 1562
1511 1513 1516 1519 1521 1523 1525 1527 1528 1530 1532 1533 1534 1536 1536 1537 1537 1538 1538 1538 1539 1540 1541 1541 1543 1544 1545 1547 1548 1550 1551 1552 1553 1554 1555 1555 1556 1557 1557 1558 1558 1558 1558
1510 1512 1515 1517 1519 1521 1523 1525 1526 1528 1529 1530 1532 1533 1533 1534 1535 1535 1535 1536 1536 1536 1537 1537 1539 1540 1541 1542 1543 1545 1546 1547 1548 1549 1550 1550 1551 1552 1552 1553 1554 1555 1554
1509 1511 1513 1516 1518 1520 1522 1524 1525 1526 1527 1529 1530 1531 1531 1532 1532 1532 1533 1533 1533 1533 1533 1534 1535 1536 1538 1538 1539 1540 1541 1542 1543 1544 1545 1545 1546 1547 1547 1548 1549 1549 1550
1508 1510 1513 1515 1517 1519 1521 1523 1524 1525 1526 1527 1528 1529 1530 1530 1530 1531 1531 1531 1531 1531 1531 1532 1532 1533 1534 1535 1536 1536 1537 1538 1539 1539 1540 1540 1541 1542 1543 1543 1544 1545 1545
1507 1510 1513 1515 1517 1519 1521 1522 1523 1524 1525 1526 1527 1527 1528 1529 1529 1530 1530 1530 1530 1530 1530 1530 1530 1531 1531 1532 1533 1533 1533 1534 1535 1536 1536 1536 1537 1537 1538 1539 1540 1541 1541
1507 1510 1512 1515 1517 1519 1520 1522 1523 1524 1524 1525 1526 1526 1527 1528 1528 1528 1529 1529 1529 1529 1529 1528 1529 1529 1529 1529 1530 1530 1530 1530 1531 1532 1533 1533 1534 1534 1535 1536 1537 1537 1538
1507 1509 1512 1514 1516 1518 1520 1521 1522 1523 1524 1524 1525 1525 1526 1527 1527 1528 1528 1529 1529 1528 1528 1528 1528 1528 1528 1528 1528 1528 1528 1528 1529 1529 1530 1530 1531 1532 1532 1533 1534 1534 1535
1506 1509 1511 1514 1516 1518 1519 1520 1521 1522 1523 1523 1524 1525 1525 1526 1527 1527 1528 1528 1528 1528 1528 1527 1527 1527 1527 1527 1527 1527 1527 1527 1527 1527 1528 1528 1529 1530 1530 1531 1531 1532 1532
1506 1508 1510 1513 1515 1517 1518 1520 1521 1522 1522 1523 1524 1524 1525 1525 1526 1527 1527 1527 1528 1528 1528 1528 1527 1527 1527 1527 1527 1527 1527 1526 1526 1527 1527 1528 1528 1528 1528 1529 1529 1530 1530
1505 1507 1509 1511 1513 1515 1517 1519 1520 1521 1522 1523 1524 1524 1525 1525 1526 1526 1527 1528 1528 1528 1528 1528 1528 1528 1528 1528 1528 1527 1527 1527 1527 1527 1527 1528 1528 1528 1528 1528 1528 1528 1528
1504 1507 1509 1511 1513 1515 1517 1518 1519 1521 1522 1523 1524 1524 1525 1526 1526 1527 1527 1528 1529 1529 1529 1529 1529 1529 1529 1529 1529 1529 1528 1528 1528 1528 1528 1528 1527 1527 1527 1528 1528 1527 1527
1503 1506 1508 1510 1512 1514 1516 1517 1519 1521 1522 1522 1524 1525 1525 1526 1527 1528 1528 1529 1529 1530 1530 1530 1530 1530 1531 1531 1531 1531 1530 1530 1530 1530 1529 1529 1528 1528 1528 1528 1528 1528 1528
1502 1504 1507 1509 1511 1514 1516 1517 1519 1520 1521 1522 1524 1525 1526 1527 1528 1528 1529 1530 1530 1531 1531 1531 1532 1532 1532 1533 1533 1533 1533 1532 1532 1531 1531 1530 1530 1530 1529 1529 1529 1529 1529
1501 1503 1506 1508 1511 1513 1515 1517 1519 1520 1522 1523 1524 1525 1526 1527 1528 1529 1530 1531 1532 1532 1532 1533 1533 1534 1534 1535 1535 1535 1534 1534 1534 1534 1534 1533 1532 1531 1531 1531 1531 1530 1531
1501 1503 1505 1508 1510 1513 1515 1516 1518 1520 1522 1523 1524 1525 1527 1528 1529 1530 1531 1532 1533 1534 1534 1535 1535 1536 1536 1537 1537 1537 1536 1536 1536 1536 1536 1535 1535 1534 1533 1533 1533 1533 1533
1501 1503 1506 1508 1510 1513 1515 1516 1518 1520 1521 1523 1524 1526 1527 1529 1530 1531 1533 1534 1535 1536 1537 1537 1538 1538 1539 1539 1539 1539 1539 1539 1538 1538 1538 1538 1537 1537 1536 1535 1535 1535 1536
1501 1504 1506 1508 1510 1513 1515 1516 1518 1520 1522 1523 1525 1526 1528 1530 1531 1533 1534 1536 1537 1538 1539 1539 1540 1541 1541 1541 1542 1542 1542 1541 1541 1541 1540 1540 1540 1539 1539 1538 1538 1537 1536
1502 1504 1507 1509 1511 1513 1515 1516 1518 1520 1522 1524 1526 1527 1529 1531 1532 1533 1535 1536 1537 1538 1540 1541 1542 1542 1542 1543 1543 1544 1544 1544 1543 1543 1544 1544 1544 1543 1542 1541 1540 1539 1538
1502 1505 1507 1509 1511 1513 1515 1517 1519 1520 1522 1524 1526 1528 1530 1532 1533 1535 1536 1537 1539 1540 1540 1541 1542 1543 1544 1544 1544 1545 1545 1545 1545 1546 1546 1546 1545 1544 1544 1543 1542 1541 1540